• Em Portugal
  • Lista de países
  • Para 7 dias
  • Temperatura da água
  • Mapas de satélite
  • Mapa do tempo
  • Widgets de tempo
  • user-avatar
    Iniciar Sessão

    Previsão horária em Hlyustino

    Hoje, 20 Setembro, Quinta-feira

    Tempo Temperatura Precipitação Vento Pressão Humidade
    00:00 +16°C° 0 mm 3 m/s 745 mmHg 93%
    01:00 +16°C° 0 mm 3 m/s 745 mmHg 94%
    02:00 +16°C° 0 mm 3 m/s 745 mmHg 95%
    03:00 +16°C° 0 mm 3 m/s 745 mmHg 95%
    04:00 +14°C° 0 mm 3 m/s 745 mmHg 95%
    05:00 +15°C° 0 mm 2 m/s 745 mmHg 96%
    06:00 +16°C° 0 mm 3 m/s 745 mmHg 93%
    07:00 +16°C° 0 mm 3 m/s 746 mmHg 91%
    08:00 +17°C° 0 mm 3 m/s 746 mmHg 88%
    09:00 +19°C° 0 mm 3 m/s 746 mmHg 80%
    10:00 +20°C° 0 mm 3 m/s 746 mmHg 73%
    11:00 +22°C° 0 mm 3 m/s 746 mmHg 65%
    12:00 +22°C° 0 mm 3 m/s 746 mmHg 62%
    13:00 +24°C° 0 mm 3 m/s 746 mmHg 59%
    14:00 +24°C° 0 mm 3 m/s 746 mmHg 56%
    15:00 +24°C° 0 mm 3 m/s 746 mmHg 60%
    16:00 +23°C° 0 mm 2 m/s 746 mmHg 64%
    17:00 +21°C° 0 mm 2 m/s 746 mmHg 68%
    18:00 +21°C° 0 mm 1 m/s 746 mmHg 72%
    19:00 +19°C° 0 mm 1 m/s 746 mmHg 75%
    20:00 +18°C° 0 mm 1 m/s 746 mmHg 78%
    21:00 +18°C° 0 mm 1 m/s 746 mmHg 80%
    22:00 +16°C° 0 mm 1 m/s 746 mmHg 81%
    23:00 +16°C° 0 mm 1 m/s 746 mmHg 82%

    Amanhã, 21 Setembro, Sexta-feira

    Tempo Temperatura Precipitação Vento Pressão Humidade
    00:00 +16°C° 0 mm 1 m/s 747 mmHg 85%
    01:00 +16°C° 0 mm 1 m/s 747 mmHg 87%
    02:00 +16°C° 0 mm 1 m/s 747 mmHg 89%
    03:00 +16°C° 0 mm 1 m/s 747 mmHg 90%
    04:00 +16°C° 0 mm 1 m/s 747 mmHg 91%
    05:00 +16°C° 0 mm 1 m/s 747 mmHg 92%
    06:00 +17°C° 0 mm 2 m/s 747 mmHg 90%
    07:00 +18°C° 0 mm 2 m/s 747 mmHg 88%
    08:00 +19°C° 0 mm 2 m/s 747 mmHg 85%
    09:00 +20°C° 0 mm 2 m/s 747 mmHg 80%
    10:00 +23°C° 0 mm 2 m/s 747 mmHg 74%
    11:00 +25°C° 0 mm 3 m/s 747 mmHg 68%
    12:00 +25°C° 0 mm 3 m/s 747 mmHg 66%
    13:00 +26°C° 0 mm 3 m/s 747 mmHg 63%
    14:00 +26°C° 0 mm 3 m/s 746 mmHg 60%
    15:00 +25°C° 0 mm 3 m/s 746 mmHg 64%
    16:00 +25°C° 0 mm 3 m/s 746 mmHg 68%
    17:00 +24°C° 0 mm 2 m/s 745 mmHg 71%
    18:00 +21°C° 0 mm 3 m/s 745 mmHg 74%
    19:00 +20°C° 0 mm 3 m/s 745 mmHg 76%
    20:00 +19°C° 0 mm 3 m/s 745 mmHg 79%
    21:00 +18°C° 0 mm 4 m/s 745 mmHg 80%
    22:00 +18°C° 0 mm 4 m/s 744 mmHg 80%
    23:00 +18°C° 0 mm 4 m/s 744 mmHg 81%

    Depois de amanhã, 22 Setembro, Sábado

    Tempo Temperatura Precipitação Vento Pressão Humidade
    00:00 +17°C° 0 mm 4 m/s 744 mmHg 80%
    01:00 +17°C° 0 mm 4 m/s 743 mmHg 80%
    02:00 +17°C° 0 mm 4 m/s 743 mmHg 80%
    03:00 +16°C° 0 mm 5 m/s 742 mmHg 79%
    04:00 +16°C° 0 mm 5 m/s 742 mmHg 78%
    05:00 +15°C° 0 mm 5 m/s 741 mmHg 77%
    06:00 +16°C° 0 mm 6 m/s 741 mmHg 76%
    07:00 +16°C° 0 mm 6 m/s 741 mmHg 74%
    08:00 +17°C° 0 mm 6 m/s 741 mmHg 73%
    09:00 +19°C° 0 mm 6 m/s 741 mmHg 71%
    10:00 +20°C° 0 mm 6 m/s 741 mmHg 68%
    11:00 +20°C° 0 mm 6 m/s 741 mmHg 66%
    12:00 +19°C° 0.9 mm 6 m/s 741 mmHg 72%
    13:00 +16°C° 0.9 mm 5 m/s 741 mmHg 78%
    14:00 +15°C° 0.9 mm 5 m/s 741 mmHg 84%
    15:00 +14°C° 1.2 mm 4 m/s 741 mmHg 86%
    16:00 +13°C° 1.2 mm 4 m/s 742 mmHg 87%
    17:00 +12°C° 1.2 mm 3 m/s 742 mmHg 89%
    18:00 +12°C° 0.6 mm 3 m/s 742 mmHg 89%
    19:00 +11°C° 0.6 mm 4 m/s 742 mmHg 89%
    20:00 +11°C° 0.6 mm 4 m/s 742 mmHg 89%
    21:00 +11°C° 0.8 mm 4 m/s 742 mmHg 89%
    22:00 +10°C° 0.8 mm 4 m/s 742 mmHg 90%
    23:00 +10°C° 0.8 mm 4 m/s 742 mmHg 90%

    23 Setembro, Domingo

    Tempo Temperatura Precipitação Vento Pressão Humidade
    00:00 +10°C° 0.2 mm 4 m/s 742 mmHg 91%
    01:00 +9°C° 0.2 mm 3 m/s 742 mmHg 91%
    02:00 +9°C° 0.2 mm 3 m/s 742 mmHg 92%
    03:00 +9°C° 0.1 mm 3 m/s 741 mmHg 93%
    04:00 +8°C° 0.1 mm 3 m/s 741 mmHg 94%
    05:00 +8°C° 0.1 mm 3 m/s 741 mmHg 95%
    06:00 +8°C° 0 mm 3 m/s 741 mmHg 93%
    07:00 +9°C° 0 mm 3 m/s 741 mmHg 90%
    08:00 +8°C° 0 mm 4 m/s 740 mmHg 87%
    09:00 +11°C° 0 mm 4 m/s 740 mmHg 81%
    10:00 +12°C° 0 mm 5 m/s 740 mmHg 75%
    11:00 +13°C° 0 mm 6 m/s 740 mmHg 69%
    12:00 +13°C° 0.2 mm 6 m/s 740 mmHg 67%
    13:00 +14°C° 0.2 mm 6 m/s 740 mmHg 65%
    14:00 +14°C° 0.2 mm 7 m/s 740 mmHg 63%
    15:00 +13°C° 0.2 mm 6 m/s 740 mmHg 66%
    16:00 +12°C° 0.2 mm 5 m/s 740 mmHg 70%
    17:00 +12°C° 0.2 mm 4 m/s 740 mmHg 74%
    18:00 +11°C° 0 mm 4 m/s 740 mmHg 76%
    19:00 +10°C° 0 mm 4 m/s 740 mmHg 79%
    20:00 +9°C° 0 mm 3 m/s 741 mmHg 82%
    21:00 +8°C° 0 mm 3 m/s 741 mmHg 83%
    22:00 +8°C° 0 mm 3 m/s 741 mmHg 84%
    23:00 +8°C° 0 mm 3 m/s 741 mmHg 85%

    24 Setembro, Segunda-feira

    Tempo Temperatura Precipitação Vento Pressão Humidade
    00:00 +7°C° 0 mm 3 m/s 740 mmHg 86%
    01:00 +7°C° 0 mm 3 m/s 740 mmHg 88%
    02:00 +5°C° 0 mm 3 m/s 740 mmHg 89%
    03:00 +5°C° 0 mm 3 m/s 739 mmHg 88%
    04:00 +5°C° 0 mm 3 m/s 739 mmHg 87%
    05:00 +5°C° 0 mm 3 m/s 739 mmHg 86%
    06:00 +7°C° 0 mm 3 m/s 738 mmHg 82%
    07:00 +7°C° 0 mm 4 m/s 738 mmHg 78%
    08:00 +8°C° 0 mm 4 m/s 737 mmHg 74%
    09:00 +8°C° 0.6 mm 5 m/s 737 mmHg 77%
    10:00 +8°C° 0.6 mm 5 m/s 736 mmHg 81%
    11:00 +8°C° 0.6 mm 5 m/s 736 mmHg 84%
    12:00 +8°C° 1 mm 7 m/s 734 mmHg 85%
    13:00 +7°C° 1 mm 8 m/s 733 mmHg 87%
    14:00 +7°C° 1 mm 10 m/s 731 mmHg 88%
    15:00 +7°C° 2.7 mm 9 m/s 730 mmHg 89%
    16:00 +7°C° 2.7 mm 9 m/s 728 mmHg 90%
    17:00 +9°C° 2.7 mm 8 m/s 727 mmHg 91%
    18:00 +9°C° 1.1 mm 7 m/s 726 mmHg 92%
    19:00 +10°C° 1.1 mm 6 m/s 725 mmHg 93%
    20:00 +12°C° 1.1 mm 5 m/s 723 mmHg 94%
    21:00 +11°C° 0.3 mm 6 m/s 723 mmHg 93%
    22:00 +11°C° 0.3 mm 6 m/s 722 mmHg 92%
    23:00 +10°C° 0.3 mm 7 m/s 721 mmHg 91%

    25 Setembro, Terça-feira

    Tempo Temperatura Precipitação Vento Pressão Humidade
    00:00 +10°C° 0.1 mm 7 m/s 721 mmHg 91%
    01:00 +9°C° 0.1 mm 7 m/s 720 mmHg 90%
    02:00 +8°C° 0.1 mm 7 m/s 720 mmHg 90%
    03:00 +8°C° 0.4 mm 6 m/s 720 mmHg 91%
    04:00 +8°C° 0.4 mm 6 m/s 720 mmHg 92%
    05:00 +8°C° 0.4 mm 6 m/s 720 mmHg 93%
    06:00 +8°C° 0.5 mm 6 m/s 721 mmHg 91%
    07:00 +6°C° 0.5 mm 7 m/s 721 mmHg 90%
    08:00 +6°C° 0.5 mm 7 m/s 722 mmHg 88%
    09:00 +6°C° 0.2 mm 8 m/s 723 mmHg 87%
    10:00 +6°C° 0.2 mm 8 m/s 724 mmHg 87%
    11:00 +6°C° 0.2 mm 8 m/s 725 mmHg 86%
    12:00 +6°C° 0.3 mm 9 m/s 727 mmHg 85%
    13:00 +6°C° 0.3 mm 9 m/s 728 mmHg 85%
    14:00 +6°C° 0.3 mm 10 m/s 729 mmHg 84%
    15:00 +5°C° 0.2 mm 10 m/s 730 mmHg 84%
    16:00 +5°C° 0.2 mm 10 m/s 731 mmHg 84%
    17:00 +5°C° 0.2 mm 9 m/s 732 mmHg 83%
    18:00 +3°C° 0.1 mm 9 m/s 733 mmHg 83%
    19:00 +3°C° 0.1 mm 9 m/s 734 mmHg 82%
    20:00 +4°C° 0.1 mm 8 m/s 735 mmHg 81%
    21:00 +2°C° 0 mm 8 m/s 735 mmHg 81%
    22:00 +3°C° 0 mm 7 m/s 736 mmHg 81%
    23:00 +2°C° 0 mm 7 m/s 737 mmHg 80%
    Mostrar mais